Flag for China Weather past 2 weeks in Shantou, Guangdong, China

Now
90 °F

Partly sunny.


Feels Like: 103 °F
Forecast: 76 / 91 °F
Wind: 6 mph from East

Location: Shantou Airport

Current Time: Jul 31, 2015 at 1:17:41 PM

Latest Report: Jul 31, 2015 at 12:00 PM


Visibility: N/A

Pressure: 29.89 "Hg

Humidity: 67%

Dew point: 77 °F

Location of ShantouLocation

Historic Weather in Shantou — Graph

°F

Shantou temperature yesterday

Maximum temperature yesterday: 88 °F (at 11:00 AM)
Minimum temperature yesterday: 77 °F (at 3:00 AM)
Average temperature yesterday: 81 °F

Past Weeks' High & Low Weather Summary

 TemperatureHumidityPressure
High93 °F (Jul 18, 3:00 PM)100% (Jul 17, 3:00 AM)29.92 "Hg (Jul 17, 3:00 AM)
Low75 °F (Jul 23, 4:00 PM)49% (Jul 18, 3:00 PM)29.47 "Hg (Jul 16, 4:00 PM)
Average82 °F87%29.75 "Hg
* Reported Jul 16 12:00 Noon — Jul 31 12:00 Noon, Shantou, Weather by CustomWeather, © 2015

Note: Actual official high and low records may vary slightly from our data, if they occured in-between our weather recording intervals... More about our weather records

Advertising

Shantou weather history for previous 24 hours

 ConditionsComfort  
Time TempWeatherWind HumidityBarometerVisibility
12:00 PM
Fri, Jul 31
90 °FPartly sunny.6 mph67%29.89 "HgN/A
11:00 AM88 °FPartly sunny.3 mph70%29.89 "HgN/A
10:00 AM84 °FPartly sunny.3 mph79%29.89 "HgN/A
9:00 AM84 °FPassing clouds.3 mph79%29.89 "HgN/A
8:00 AM82 °FPassing clouds.3 mph89%29.89 "Hg4 mi
7:00 AM79 °FFog.1 mph100%29.89 "Hg1 mi
6:00 AM77 °FFog.1 mph100%29.89 "Hg1 mi
5:00 AM77 °FFog.No wind100%29.86 "Hg2 mi
4:00 AM77 °FFog.No wind100%29.86 "Hg2 mi
3:00 AM77 °FFog.1 mph100%29.86 "Hg1 mi
2:00 AM77 °FFog.1 mph100%29.86 "Hg2 mi
1:00 AM77 °FPassing clouds.No wind100%29.86 "Hg4 mi
12:00 AM77 °FPassing clouds.1 mph100%29.89 "HgN/A
11:00 PM
Thu, Jul 30
77 °FPassing clouds.No wind100%29.89 "HgN/A
10:00 PM79 °FPassing clouds.No wind94%29.89 "HgN/A
9:00 PM79 °FPassing clouds.No wind94%29.86 "HgN/A
8:00 PM81 °FPassing clouds.3 mph84%29.86 "HgN/A
7:00 PM81 °FPassing clouds.No wind89%29.86 "HgN/A
6:00 PM81 °FSprinkles. Passing clouds.1 mph89%29.86 "HgN/A
5:00 PM82 °FPassing clouds.6 mph84%29.86 "HgN/A
4:00 PM86 °FPassing clouds.3 mph70%29.86 "HgN/A
3:00 PM86 °FSprinkles. Passing clouds.8 mph66%29.86 "HgN/A
2:00 PM86 °FScattered clouds.6 mph62%29.86 "HgN/A
1:00 PM86 °FBroken clouds.8 mph75%29.89 "HgN/A
Weather by CustomWeather, © 2015

See weather overviewHow to use our weather pages